Location: Concord
(42.4605°N, 71.3489°W)
Time: 09:40:07
(UTC-04:00)

ISS - Pass Details

Date: 24 May 2026
Orbit: 414 x 424 km, 51.6° (Epoch: 21 May)

Event Time Altitude Azimuth Distance (km) Brightness Sun altitude
Rises 21:16:56 0° 302° (WNW) 2,352 2.0 -10.9°
Reaches altitude 10° 21:19:02 10° 300° (WNW) 1,487 0.5 -11.2°
Maximum altitude 21:22:21 68° 217° (SW) 448 -3.7 -11.6°
Enters shadow 21:24:27 20° 137° (SE) 1,005 -2.5 -11.9°
